Retour au catalogue

STARLINK-31652

ActifCommunicationsVLEO
NORAD 59256·PAYLOAD·🇺🇸 United States

Lancé Mar 19, 2024 depuis Vandenberg Space Force Base

Loading…

Prochains Passages (prochaines 24 heures)

TLE

FraisSource: CelesTrak SupGP

Époque: Sep 15, 2026, 02:50 UTC

1 59256C 24050C   26258.11854167  .00033762  00000+0  10859-2 0  2587
2 59256  53.1591  19.9659 0000970  83.4370  45.6694 15.31679647    17

Suivez STARLINK-31652 en temps réel avec AllMySat

Download on the App Store